Location: Unspecified
(0.0000°N, 0.0000°E)
Time: 14:25:35
(UTC+00:00)

ISS - Visible Passes

Search period start: 15 May 2021 00:00
Search period end: 25 May 2021 00:00
Orbit: 417 x 422 km, 51.6° (Epoch: 15 May)

Date Brightness Start Highest point End Pass type
(mag) Time Alt. Az. Time Alt. Az. Time Alt. Az.
17 May -2.7 05:04:31 10° NNW 05:07:46 49° NE 05:11:03 10° SE visible
18 May -1.1 04:17:44 10° N 04:20:22 21° NE 04:23:01 10° ESE visible
19 May -2.7 05:07:05 12° WNW 05:09:32 26° SW 05:12:25 10° S visible
20 May -1.2 04:24:58 14° SSE 04:24:58 14° SSE 04:25:28 10° SSE visible
